Overview Statistics Trail Chart Weather Telemetry Raw packets
 

This is the latest recevied weather packets stored in our database for station/object KE0SWK-13. If no packets are shown the sender has not sent any weather packets the latest 10 day(s).

<< 2 3 4 5 6 7 >>
Time Temp. Humidity Pressure Rain* Wind** Luminosity Snow
1788255429 -17.78° C 100% 0 hPa 0 mm - - -
1788253652 -17.78° C 100% 0 hPa 0 mm - - -
1788253617 -17.78° C 100% 0 hPa 0 mm - - -
1788252874 25° C 58% 0 hPa 0 mm - - -
1788252743 25° C 58% 0 hPa 0 mm - - -
1788252709 25° C 58% 0 hPa 0 mm - - -
1788251990 -17.78° C 100% 0 hPa 0 mm - - -
1788251802 -17.78° C 100% 0 hPa 0 mm - - -
1788249990 -17.78° C 100% 0 hPa 0 mm - - -
1788249083 25.56° C 56% 0 hPa 0 mm - - -
1788248177 -17.78° C 100% 0 hPa 0 mm - - -
1788246363 -17.78° C 100% 0 hPa 0 mm - - -
1788245453 -17.78° C 100% 0 hPa 0 mm - - -
1788244545 -17.78° C 100% 0 hPa 0 mm - - -
1788241832 26.11° C 58% 0 hPa 0 mm - - -
1788238204 26.11° C 57% 0 hPa 0 mm - - -
1788228543 -17.78° C 100% 0 hPa 0 mm - - -
1788228228 -17.78° C 100% 0 hPa 0 mm - - -
1788222783 -17.78° C 100% 0 hPa 0 mm - - -
1788220963 35.56° C 33% 0 hPa 0 mm - - -
1788220056 -17.78° C 100% 0 hPa 0 mm - - -
1788219149 37.22° C 31% 0 hPa 0 mm - - -
1788218246 -17.78° C 100% 0 hPa 0 mm - - -
1788217337 38.33° C 30% 0 hPa 0 mm - - -
1788216430 -17.78° C 100% 0 hPa 0 mm - - -

* Rain latest hour (hover to see other rain measurements)
** Current wind speed in m/s (hover to see current wind gust speed)